This is the latest recevied weather packets stored in our database for station/object G7GFU-13. If no packets are shown the sender has not sent any weather packets the latest 10 day(s).
| Time | Temp. | Humidity | Pressure | Rain* | Wind** | Luminosity | Snow |
|---|---|---|---|---|---|---|---|
| 1777748403 | 15° C | 67% | 1012.1 hPa | 0 mm | - | - | - |
| 1777747098 | 15.56° C | 62% | 1012.2 hPa | 0 mm | - | - | - |
| 1777745883 | 15.56° C | 62% | 1012.3 hPa | 0 mm | - | - | - |
| 1777744443 | 16.11° C | 60% | 1012.5 hPa | 0 mm | - | - | - |
| 1777739223 | 17.22° C | 55% | 1012.8 hPa | 0 mm | - | - | - |
| 1777735623 | 18.33° C | 53% | 1013.5 hPa | 0 mm | - | - | - |
| 1777734543 | 18.89° C | 51% | 1013.5 hPa | 0 mm | - | - | - |
| 1777733103 | 17.78° C | 54% | 1014.3 hPa | 0 mm | - | - | - |
| 1777731078 | 17.78° C | 55% | 1014.7 hPa | 0 mm | - | - | - |
| 1777724283 | 17.22° C | 61% | 1015.7 hPa | 0 mm | - | - | - |
| 1777721897 | 17.22° C | 64% | 1016.1 hPa | 0 mm | - | - | - |
| 1777714563 | 15.56° C | 71% | 1017 hPa | 0 mm | - | - | - |
| 1777713483 | 13.89° C | 76% | 1016.9 hPa | 0 mm | - | - | - |
| 1777712943 | 14.44° C | 76% | 1016.9 hPa | 0 mm | - | - | - |
| 1777712403 | 13.89° C | 75% | 1017 hPa | 0 mm | - | - | - |
| 1777709343 | 13.89° C | 76% | 1017.2 hPa | 0 mm | - | - | - |
| 1777708444 | 14.44° C | 79% | 1017.3 hPa | 0 mm | - | - | - |
| 1777703764 | 10° C | 92% | 1017.1 hPa | 0 mm | - | - | - |
| 1777702143 | 10° C | 95% | 1017.1 hPa | 0 mm | - | - | - |
| 1777698138 | 6.67° C | 97% | 1017 hPa | 0 mm | - | - | - |
| 1777694043 | 7.22° C | 97% | 1017.2 hPa | 0 mm | - | - | - |
| 1777691883 | 7.22° C | 97% | 1017.2 hPa | 0 mm | - | - | - |
| 1777687203 | 8.33° C | 97% | 1017.7 hPa | 0 mm | - | - | - |
| 1777685223 | 7.78° C | 96% | 1018 hPa | 0 mm | - | - | - |
| 1777682703 | 8.89° C | 96% | 1018.3 hPa | 0 mm | - | - | - |
* Rain latest hour (hover to see other rain measurements)
** Current wind speed in m/s (hover to see current wind gust speed)